Location: *
(51.0000°S, 179.7500°W)
Time: 17:00:06
(UTC+00:00)

Daily predictions for brighter satellites

Satellite Brightness Start Highest point End
(mag) Time Altitude Azimuth Time Altitude Azimuth Time Altitude Azimuth
USA 59 Rocket 3.2 14:00:54 35° E 14:00:54 35° E 14:08:12 10° SE
ATLAS 3B R/B 4.2 15:38:29 24° SSE 15:38:29 24° SSE 15:41:59 10° SE
Cosmos 1980 Rocket 3.7 15:49:55 30° SE 15:49:55 30° SE 15:52:42 10° SSE
USA 59 Rocket 2.0 15:47:30 77° NW 15:48:32 88° SW 15:59:15 10° SE
SL-16 R/B 3.0 16:03:39 10° SSE 16:08:13 51° SSE 16:08:13 51° SSE
ATLAS 5 CENTAUR R/B 3.6 16:12:09 31° S 16:12:44 32° SSE 16:17:44 10° E
Lacrosse 4 Rocket 4.2 16:18:29 12° SSE 16:18:29 12° SSE 16:18:51 10° SSE
SL-16 R/B 3.5 16:12:31 20° NNE 16:15:45 37° ENE 16:20:58 10° SE
Gbstr 26 Del rocket 4.3 16:18:44 42° ESE 16:18:44 42° ESE 16:22:16 10° E
USA 238 DEB 3.7 16:24:42 61° N 16:24:42 61° N 16:29:55 10° NNE
USA 238 3.7 16:24:44 62° N 16:24:44 62° N 16:29:59 10° NNE
Cosmos 1844 4.1 16:25:28 52° SSE 16:26:18 58° SE 16:31:50 10° NE
Cosmos 1844 Rocket 2.9 16:32:40 61° S 16:33:30 71° ESE 16:39:12 10° NE
ISS -0.9 16:35:32 17° ENE 16:35:32 17° ENE 16:37:02 10° E
Cosmos 1867 3.5 16:37:34 81° ESE 16:37:34 81° ESE 16:42:53 10° NE
Cosmos 2360 Rocket 4.0 16:35:08 10° NNE 16:39:57 30° ENE 16:44:49 10° SE
Cosmos 1461 4.4 16:47:17 29° NNE 16:47:17 29° NNE 16:49:30 10° NNE
Spot 4 Rocket 3.9 16:47:28 10° NNE 16:52:39 86° WNW 16:53:52 54° SSW
Cosmos 2278 3.6 16:54:43 43° NNW 16:56:43 90° ENE 17:02:29 10° SSE
Lacrosse 5 2.5 16:57:36 42° S 16:57:58 42° S 17:02:51 10° ESE
Nadezhda 3 Rocket 3.9 16:56:10 38° NW 16:58:36 64° WSW 17:04:50 10° S
Cosmos 44 Rocket 3.2 17:01:17 65° SSW 17:01:17 65° SSW 17:05:42 10° SE
Cosmos 1339 Rocket 4.5 16:54:33 10° N 17:01:00 89° E 17:07:25 10° S
CZ-2C R/B 4.2 16:57:49 10° NE 17:01:09 35° ESE 17:03:27 18° S
PSLV R/B 3.8 16:58:13 10° N 17:01:44 58° N 17:01:44 58° N
NOSS 3-4 (A) 4.2 16:57:09 14° NW 17:04:48 79° NE 17:12:49 10° SE
NOSS 3-4 (C) 4.2 16:57:04 14° NNW 17:04:50 79° NE 17:12:51 10° SE
Cosmos 2333 Rocket 3.5 17:02:18 10° N 17:07:41 41° ENE 17:13:07 10° SE
Cosmos 1892 Rocket 3.4 17:07:31 77° WSW 17:07:42 79° W 17:12:06 10° N
ATLAS CENTAUR R/B 4.0 17:09:15 11° ENE 17:09:15 11° ENE 17:09:25 10° ENE
Cosmos 1455 Rocket 3.1 17:09:11 10° N 17:13:41 81° E 17:18:15 10° SSE
Cosmos 2322 Rocket 2.6 17:10:32 10° NNW 17:16:13 67° ENE 17:21:57 10° SE
Cosmos 1943 Rocket 4.3 17:14:10 10° S 17:17:58 18° SSE 17:21:45 10° ESE
USA 305 3.6 17:18:41 32° NNW 17:19:56 44° NE 17:23:43 10° ESE
Cosmos 1125 Rocket 3.5 17:18:05 22° SSW 17:21:32 82° ESE 17:26:45 10° NNE
Cosmos 841 Rocket 4.2 17:23:20 34° SW 17:23:20 34° SW 17:27:41 10° SSE
Cosmos 1697 Rocket 4.3 17:26:09 19° SSW 17:26:09 19° SSW 17:29:40 10° SSE
Helios 1B rocket 2.9 17:23:11 10° NNE 17:27:03 58° ESE 17:30:54 11° S
Cosmos 1544 3.5 17:26:26 36° SE 17:27:08 45° ESE 17:29:51 10° NNE
ATLAS 3B R/B 3.8 17:25:43 18° SSW 17:29:08 29° SSE 17:34:30 10° ESE
DMSP B5D2-2 4.0 17:24:25 10° S 17:29:39 61° WSW 17:34:48 10° NNW
SeaSat 1 4.3 17:26:08 10° E 17:30:07 25° SE 17:34:08 10° SSW
Cosmos 1980 Rocket 3.2 17:31:41 26° SW 17:31:41 26° SW 17:36:22 10° SSE
Cosmos 2278 Rocket 3.9 17:27:27 10° SSW 17:32:24 29° SE 17:37:19 10° ENE
USA 276 2.9 17:34:22 38° NNW 17:34:54 43° NNE 17:37:53 10° E
Meteor 2-3 Rocket 4.1 17:30:08 10° S 17:35:48 64° ESE 17:41:23 10° NNE
Radarsat 4.5 17:30:37 10° N 17:35:50 73° WNW 17:41:09 10° SSW
USA 59 Rocket 2.5 17:34:06 26° W 17:40:17 50° SSW 17:50:10 10° SE
CZ-4B R/B 3.7 17:39:03 10° NNE 17:42:44 84° ESE 17:46:31 11° SSW
ADEOS Rocket 3.8 17:40:01 10° NE 17:46:42 58° ESE 17:52:47 10° S
Cosmos 1814 Rocket 4.2 17:42:59 10° NW 17:48:14 53° WSW 17:53:33 10° SSE
Cosmos 1271 Rocket 4.3 17:44:57 10° S 17:48:36 35° ESE 17:52:11 10° NE
Meteor 2-1 Rocket 4.4 17:43:56 10° N 17:49:49 83° E 17:55:39 10° SSE
Cosmos 1934 Rocket 4.5 17:45:07 10° SSW 17:50:33 34° W 17:55:55 10° NNW
Cosmos 2058 3.1 17:49:35 22° SSW 17:51:52 45° W 17:55:47 10° NNW
Cosmos 1727 Rocket 4.3 17:46:21 10° N 17:52:42 74° E 17:59:09 10° SSE
SL-16 R/B 3.6 17:48:11 10° S 17:52:45 22° SW 17:53:18 22° WSW
Cosmos 1626 Rocket 3.4 17:49:29 10° SSW 17:53:54 78° W 17:58:17 10° N
Timation 2 Rocket 4.2 17:49:13 17° SW 17:54:25 58° WNW 18:01:04 10° N
Lacrosse 4 Rocket 3.7 17:54:25 11° SSW 17:54:32 11° SSW 17:56:00 10° S
SMAP 3.4 17:50:57 10° N 17:55:25 42° W 17:59:33 12° SSW
SWARM A 4.4 17:52:44 10° S 17:56:25 89° E 18:00:02 10° N
Okean 1-7 Rocket 3.8 17:52:46 10° S 17:57:18 74° ESE 18:01:50 10° NNE
IGS 5A 3.9 17:53:23 10° NNE 17:57:28 64° ESE 18:01:37 10° S
Cosmos 2173 Rocket 4.3 17:51:25 10° S 17:57:46 71° ESE 18:04:07 10° NNE
ATLAS 5 CENTAUR R/B 2.3 17:52:58 17° SW 17:57:46 74° SE 18:02:46 10° NE
SL-16 R/B 2.5 17:54:29 11° NW 17:59:45 47° SW 18:05:18 10° SSE
ATLAS 5 CENTAUR R/B 3.3 17:58:39 25° WSW 18:01:01 47° NW 18:12:49 10° NNE
Cosmos 2150 Rocket 4.0 17:55:44 10° SSW 18:01:09 83° WNW 18:06:23 10° NNE
Cosmos 1570 Rocket 4.0 17:56:26 10° NNW 18:01:50 84° WSW 18:07:16 10° SSE
USA 234 3.7 17:55:55 10° ESE 18:02:31 66° NE 18:09:05 10° NW
Cosmos 2208 Rocket 4.1 17:57:43 10° NNW 18:02:55 79° ENE 18:08:13 10° SSE
Gbstr 26 Del rocket 3.4 18:01:00 24° W 18:03:53 78° NNW 18:09:38 10° ENE
Cosmos 2333 4.3 17:59:28 10° NNW 18:05:17 83° ENE 18:11:07 10° SSE
Cosmos 2228 3.1 18:03:24 10° N 18:07:46 81° E 18:12:09 10° SSE
SAR-Lupe-2 3.5 18:05:16 10° NNE 18:08:54 85° W 18:12:35 10° SSW
ISS -3.5 18:08:21 17° WNW 18:10:47 66° NNE 18:14:10 10° ESE
USA 307 2.9 18:08:10 12° NW 18:11:39 71° NNE 18:15:37 10° ESE
USA 308 3.9 18:12:55 10° ENE 18:12:55 10° ENE 18:12:56 10° ENE
Resurs 01 Rocket 4.3 18:12:51 10° E 18:15:32 16° ESE 18:18:14 10° SSE
Cosmos 1666 3.7 18:12:15 10° S 18:15:40 43° ESE 18:19:03 10° NNE
Cosmos 2219 Rocket 2.4 18:10:00 10° NNW 18:15:42 77° ENE 18:21:27 10° SSE
NOSS 3-1 (C) 4.0 18:09:28 12° SW 18:15:59 57° SE 18:21:34 10° ENE
Cosmos 1802 Rocket 4.3 18:09:56 10° S 18:16:11 72° ESE 18:22:22 10° NNE
NOSS 3-1 (A) 4.4 18:10:08 12° SW 18:16:30 41° SSE 18:22:06 10° E
Cosmos 1844 Rocket 3.8 18:14:21 18° WSW 18:16:51 24° WNW 18:21:15 10° NNW
COSMOS 2428 4.2 18:13:26 10° N 18:18:49 43° ENE 18:24:16 10° SE
Cosmos 2369 Rocket 4.4 18:15:42 10° S 18:19:06 16° SSE 18:22:30 10° ESE
Geosat 4.0 18:14:16 10° SSE 18:19:20 71° SW 18:24:22 10° NW
SKYMED 2 3.7 18:14:52 10° SSE 18:19:20 82° ENE 18:23:44 10° NNW
CZ-4B R/B 3.9 18:14:07 10° NNE 18:19:20 71° ESE 18:24:32 10° SSW
Cosmos 1544 Rocket 3.6 18:16:27 10° NNW 18:20:51 57° WSW 18:25:18 10° S
Cosmos 2360 Rocket 2.3 18:18:03 10° NW 18:23:39 57° SW 18:29:17 10° SSE
Blok-L 3.6 18:24:18 13° SSE 18:24:31 14° SE 18:25:21 10° E
Cosmos 2298 Rocket 4.2 18:20:19 10° SSW 18:25:33 54° WNW 18:30:44 10° N
Meteor 1-31 Rocket 3.4 18:23:03 10° NNW 18:26:27 32° W 18:29:55 10° SSW
SJ-6B 4.4 18:25:59 10° NE 18:29:31 34° ESE 18:33:10 10° S
Cosmos 1869 3.6 18:27:24 10° NW 18:30:58 40° WSW 18:34:36 10° S
Cosmos 1500 2.9 18:29:19 10° S 18:32:52 88° ESE 18:36:23 10° N
Okean O Rocket 4.1 18:30:29 10° ENE 18:33:35 19° ESE 18:36:41 10° SSE
CZ-2C R/B 3.9 18:31:49 10° NNW 18:34:45 22° W 18:37:45 10° SW
Meteor 2-13 Rocket 4.5 18:29:19 10° NNW 18:35:27 68° WSW 18:41:41 10° S
Cosmos 1459 Rocket 4.0 18:29:43 10° SSW 18:35:56 69° W 18:41:59 10° N
Iridium 4 Rocket 3.7 18:32:17 10° NNW 18:36:44 43° W 18:41:38 10° S
SL-08 R/B 4.3 18:34:14 10° SSE 18:38:49 52° E 18:43:21 10° N
Cosmos 158 Rocket 3.9 18:34:32 10° NW 18:39:37 63° WSW 18:44:38 10° SSE
Meteor 1-27 4.4 18:34:05 10° N 18:39:56 87° E 18:45:46 10° SSE
Cosmos 2016 Rocket 4.1 18:33:40 10° S 18:39:59 88° E 18:46:09 10° N
Cosmos 773 Rocket 4.2 18:34:51 10° NNW 18:40:06 81° ENE 18:45:27 10° SSE
Lacrosse 5 2.2 18:36:49 12° WSW 18:41:36 63° SSE 18:46:41 10° ENE
Cosmos 1606 3.3 18:39:20 10° NW 18:42:38 31° WSW 18:45:58 10° S
Magion 5 Rocket2 3.9 18:36:50 10° WNW 18:42:41 61° SW 18:48:01 10° SE
Meteor 2-8 Rocket 4.5 18:36:55 10° SSW 18:43:07 85° W 18:49:16 10° N
CZ-4 R/B 2.6 18:40:56 10° NE 18:44:50 43° ESE 18:48:44 10° S
YAOGAN 1 2.6 18:42:34 10° N 18:46:55 71° WNW 18:51:19 10° SSW
RESURS DK-1 2.4 18:43:31 10° NW 18:47:35 56° SW 18:51:41 10° SSE
Cosmos 1602 Rocket 4.1 18:44:36 10° SSW 18:48:40 37° W 18:52:41 10° NNW
Resurs 1-3 4.2 18:45:29 10° NNE 18:49:48 60° ESE 18:54:12 10° S
Cosmos 2333 Rocket 2.6 18:46:26 10° WNW 18:51:59 44° SW 18:57:33 10° SSE
USA 305 2.7 18:48:52 10° W 18:52:48 65° SSW 18:56:38 10° ESE
Cosmos 1758 Rocket 4.5 18:51:57 10° SSW 18:55:47 29° W 18:59:36 10° NNW
NOSS 3-4 (A) 4.4 18:48:23 10° W 18:56:33 47° SSW 19:03:55 10° SE
NOSS 3-4 (C) 4.4 18:48:24 10° W 18:56:34 47° SSW 19:03:57 10° SE
Cosmos 1825 Rocket 3.6 18:53:04 10° SSW 18:57:26 62° W 19:01:45 10° N
Cosmos 1606 Rocket 3.6 18:53:47 10° NNW 18:58:16 82° W 19:02:47 10° S
Cosmos 2322 Rocket 3.0 18:55:42 10° WNW 19:00:45 30° SW 19:05:49 10° SSE
Helios 1B rocket 4.0 18:59:25 10° NW 19:01:54 16° W 19:04:25 10° SW
Cosmos 1943 Rocket 2.6 18:57:19 10° SSW 19:02:52 62° ESE 19:08:22 10° NE
Cosmos 1862 4.0 19:00:15 10° SSW 19:03:51 33° W 19:07:25 10° NNW
Helios 1A 2.9 19:01:42 10° SSE 19:05:52 74° WSW 19:10:00 10° NNW
SeaSat 1 2.5 19:02:09 10° NNE 19:07:07 80° WNW 19:12:08 10° SSW
